Observations for Trim Market St
| Time | AQI | Temp °C | Hum % | Pres Pa | CO μg/m³ | H₂S μg/m³ | NO μg/m³ | NO₂ μg/m³ | O₃ μg/m³ | SO₂ μg/m³ | PM1 μg/m³ | PM2.5 μg/m³ | PM10 μg/m³ |
|---|---|---|---|---|---|---|---|---|---|---|---|---|---|
| Tuesday 25 August 2026 | |||||||||||||
| 16:03 | 3 | 23.6 | 48 | 59,348 | 0 | 1.94 | 1.07 | 19.52 | 78.79 | 0 | 4.28 | 7.68 | 9.79 |
| 16:02 | 3 | 23.7 | 48 | 59,713 | 0 | 2.44 | 1.08 | 19.36 | 85.46 | 0 | 6.41 | 9.76 | 13.57 |
| 16:01 | 3 | 23.8 | 48 | 60,128 | 0 | 3.44 | 1.09 | 25.05 | 90.47 | 0 | 5.7 | 9.25 | 13.58 |
| 16:00 | 3 | 23.8 | 48 | 60,493 | 0 | 2.89 | 1.09 | 27.74 | 83.65 | 0 | 4.28 | 6.68 | 8.28 |
| 15:59 | 3 | 23.8 | 48 | 60,823 | 0 | 2.6 | 1.08 | 31.75 | 71.13 | 0 | 4.99 | 7.72 | 10.56 |
| 15:50 | 3 | 24.2 | 47 | 62,545 | 0 | 2.53 | 1.1 | 25.72 | 82.66 | 0 | 4.28 | 7.26 | 9.05 |
| 15:48 | 3 | 24.3 | 47 | 62,715 | 0 | 3.51 | 1.13 | 39.47 | 72.66 | 0 | 3.56 | 5.7 | 9.06 |
| 15:47 | 3 | 24.4 | 47 | 62,756 | 0 | 2.71 | 1.11 | 27.49 | 82.34 | 0 | 4.28 | 6.74 | 8.29 |
| 15:46 | 3 | 24.4 | 47 | 62,811 | 0 | 3.43 | 1.08 | 28.17 | 82.67 | 0 | 4.28 | 7.27 | 9.82 |
| 15:42 | 3 | 24.5 | 47 | 62,827 | 0 | 1.75 | 1.11 | 21.29 | 77.94 | 0 | 3.56 | 6.23 | 9.06 |
| 15:41 | 3 | 24.5 | 47 | 62,656 | 0 | 5.55 | 1.11 | 47.31 | 91.2 | 0 | 4.99 | 9.34 | 13.65 |
| 15:40 | 3 | 24.4 | 47 | 62,672 | 0 | 6.24 | 1.06 | 31 | 99.42 | 0 | 3.56 | 6.23 | 7.53 |
| 15:39 | 3 | 24.4 | 46 | 62,703 | 0 | 5.79 | 1.02 | 28.21 | 95.58 | 0 | 4.99 | 7.28 | 9.06 |
| 15:38 | 3 | 24.4 | 46 | 62,707 | 0 | 6 | 1.05 | 29.6 | 104.13 | 0 | 4.99 | 7.8 | 10.59 |
| 15:35 | 3 | 24.4 | 46 | 62,884 | 0 | 7.75 | 0.96 | 30.34 | 105.53 | 0 | 2.14 | 5.74 | 8.3 |
| 15:34 | 3 | 24.4 | 46 | 63,019 | 0 | 7.75 | 1 | 28.63 | 114.12 | 0 | 4.28 | 7.31 | 9.07 |
| 15:33 | 3 | 24.4 | 46 | 63,155 | 0 | 7.51 | 0.99 | 25.26 | 116.52 | 0 | 4.99 | 7.83 | 9.84 |
| 15:31 | 3 | 24.4 | 46 | 63,462 | 0 | 7.25 | 0.98 | 23.63 | 111.45 | 0 | 4.28 | 7.33 | 9.07 |
| 15:30 | 3 | 24.4 | 45 | 63,643 | 0 | 7.19 | 1 | 22.16 | 112.81 | 0 | 2.85 | 5.78 | 6.75 |
| 15:27 | 3 | 24.6 | 45 | 64,088 | 0 | 6.82 | 0.91 | 20.72 | 123.16 | 0 | 5.7 | 8.94 | 12.19 |